Location: Fredericksburg
(30.2750°N, 98.8720°W)
Time: 19:10:07
(UTC-06:00)

ISS - All Passes

Search period start: 17 December 2017 00:00
Search period end: 27 December 2017 00:00
Orbit: 402 x 406 km, 51.6° (Epoch: 18 December)

Date Brightness Start Highest point End Pass type
(mag) Time Alt. Az. Time Alt. Az. Time Alt. Az.
17 Dec - 10:26:25 10° WSW 10:29:37 54° NW 10:32:51 10° NE daylight
17 Dec - 17:00:18 10° NNE 17:01:27 11° NNE 17:02:35 10° NE daylight
17 Dec - 18:34:58 10° NW 18:38:12 62° SW 18:41:25 10° SSE visible
18 Dec - 09:34:11 10° SSW 09:37:24 60° SE 09:40:38 10° NE daylight
18 Dec - 11:12:56 10° NW 11:14:09 12° NNW 11:15:21 10° NNW daylight
18 Dec - 17:42:45 10° NW 17:45:58 53° NE 17:49:10 10° ESE daylight
19 Dec - 08:42:30 10° S 08:45:15 25° SE 08:48:00 10° ENE daylight
19 Dec - 10:19:08 10° W 10:21:41 20° NW 10:24:13 10° NNE daylight
19 Dec - 16:50:51 10° NNW 16:53:38 25° NE 16:56:24 10° E daylight
19 Dec - 18:27:32 10° W 18:29:58 19° SW 18:32:23 10° S visible
20 Dec - 07:52:01 10° SE 07:53:09 11° SE 07:54:17 10° ESE daylight
20 Dec - 09:26:11 10° WSW 09:29:18 40° NW 09:32:25 10° NNE daylight
20 Dec - 15:59:23 10° N 16:01:11 14° NE 16:02:59 10° ENE daylight
20 Dec - 17:34:40 10° WNW 17:37:49 44° SW 17:40:57 10° SSE daylight
21 Dec - 08:33:45 10° SW 08:37:00 84° SE 08:40:17 10° NE daylight
21 Dec - 16:42:18 10° NW 16:45:34 73° NE 16:48:49 10° SE daylight
22 Dec - 07:41:48 10° SSW 07:44:47 33° SE 07:47:47 10° ENE daylight
22 Dec - 09:19:08 10° W 09:21:19 17° NW 09:23:31 10° N daylight
22 Dec - 15:50:15 10° NNW 15:53:14 32° NE 15:56:13 10° ESE daylight
22 Dec - 17:27:33 10° W 17:29:28 15° SW 17:31:24 10° SSW daylight
23 Dec - 06:50:40 10° SSE 06:52:38 15° SE 06:54:36 10° E visible
23 Dec - 08:25:55 10° WSW 08:28:52 31° NW 08:31:50 10° NNE daylight
23 Dec - 14:58:33 10° N 15:00:47 17° NE 15:03:01 10° E daylight
23 Dec - 16:34:20 10° WNW 16:37:19 32° SW 16:40:17 10° SSE daylight
24 Dec - 07:33:15 10° SW 07:36:30 71° NW 07:39:47 10° NE daylight
24 Dec - 15:41:48 10° NW 15:45:04 82° SW 15:48:20 10° SE daylight
25 Dec - 06:41:06 10° SSW 06:44:13 45° SE 06:47:22 10° ENE visible
25 Dec - 08:19:07 10° WNW 08:20:52 14° NW 08:22:37 10° N daylight
25 Dec - 14:49:36 10° NNW 14:52:43 41° NE 14:55:50 10° ESE daylight
25 Dec - 16:27:49 10° WSW 16:28:51 11° SW 16:29:54 10° SW daylight
26 Dec - 05:49:34 10° S 05:52:00 20° SE 05:54:28 10° ENE visible
26 Dec - 07:25:36 10° W 07:28:20 24° NW 07:31:06 10° NNE daylight
26 Dec - 13:57:42 10° NNW 14:00:16 21° NE 14:02:49 10° E daylight
26 Dec - 15:33:57 10° WNW 15:36:42 24° SW 15:39:25 10° S daylight
